Change the Weather History Date:

Friday, January 6, 2012

  Actual Average Record
Temperature  
Mean Temperature 75 °F 72 °F  
Max Temperature 80 °F 78 °F 85 °F (1981)
Min Temperature 69 °F 66 °F 56 °F (1971)
Degree Days  
Heating Degree Days 0 0  
Month to date heating degree days 0 0  
Since 1 July heating degree days 0 0  
Cooling Degree Days 10 7  
Month to date cooling degree days 50 42  
Year to date cooling degree days 50 42  
Growing Degree Days 24 (Base 50)    
Moisture  
Dew Point 65 °F    
Average Humidity 73    
Maximum Humidity 84    
Minimum Humidity 62    
Precipitation  
Precipitation 0.00 in 0.13 in 6.87 in (1962)
Month to date precipitation 0.01 0.79  
Year to date precipitation 0.01 0.79  
Snow  
Snow 0.00 in - - ()
Month to date snowfall 0.0  
Since 1 July snowfall 0.0  
Snow Depth 0.00 in    
Sea Level Pressure  
Sea Level Pressure 30.14 in    
Wind  
Wind Speed 9 mph (NE)    
Max Wind Speed 16 mph    
Max Gust Speed 20 mph    
Visibility 10 miles    
Events      
T = Trace of Precipitation, MM = Missing Value Source: NWS Daily Summary

Daily Weather History Graph

Daily Weather History Graph

Search for Another Location

Airport or City:

Trip Planner

Search our weather history database for the weather conditions in past years. The results will help you decide how hot, cold, wet, or windy it might be!

Date:

Astronomy

Jan. 06, 2012 Rise Set
Actual Time 7:17 AM HST 6:08 PM HST
Civil Twilight 6:53 AM HST 6:32 PM HST
Nautical Twilight 6:25 AM HST 7:00 PM HST
Astronomical Twilight 5:58 AM HST 7:27 PM HST
Moon 4:12 PM HST (1/6) 5:05 AM HST (1/6)
Length of Visible Light 11h 39m
Length of Day
10h 51m
Waxing Gibbous, 94% of the Moon is Illuminated
Jan 6
Waxing Gibbous
Jan 8
Full
Jan 15
Last Quarter
Jan 22
New
Jan 30
First Quarter

Hourly Weather History & Observations

Time (HST) Temp. Dew Point Humidity Pressure Visibility Wind Dir Wind Speed Gust Speed Precip Events Conditions
12:53 AM 73.0 °F 62.1 °F 68% 30.17 in 10.0 mi ENE 11.5 mph - 0.01 in   Partly Cloudy
1:53 AM 73.0 °F 64.0 °F 73% 30.17 in 10.0 mi ENE 10.4 mph - N/A   Clear
2:53 AM 73.0 °F 64.9 °F 76% 30.15 in 10.0 mi East 13.8 mph - N/A   Mostly Cloudy
3:53 AM 73.0 °F 64.0 °F 73% 30.14 in 10.0 mi ENE 12.7 mph - N/A   Scattered Clouds
4:53 AM 73.0 °F 62.1 °F 68% 30.14 in 10.0 mi ENE 15.0 mph - N/A   Clear
5:53 AM 73.0 °F 63.0 °F 71% 30.16 in 10.0 mi ENE 12.7 mph - N/A   Overcast
6:53 AM 73.0 °F 64.0 °F 73% 30.16 in 10.0 mi ENE 11.5 mph - N/A   Scattered Clouds
7:53 AM 73.0 °F 63.0 °F 71% 30.17 in 10.0 mi East 10.4 mph - N/A   Clear
8:53 AM 75.0 °F 64.0 °F 69% 30.19 in 10.0 mi ENE 8.1 mph - N/A   Scattered Clouds
9:53 AM 77.0 °F 64.0 °F 64% 30.20 in 10.0 mi ENE 10.4 mph - N/A   Clear
10:53 AM 78.1 °F 64.0 °F 62% 30.19 in 10.0 mi ENE 6.9 mph - N/A   Scattered Clouds
11:53 AM 79.0 °F 64.9 °F 62% 30.17 in 10.0 mi ENE 8.1 mph - N/A   Partly Cloudy
12:53 PM 77.0 °F 64.9 °F 66% 30.14 in 10.0 mi NE 11.5 mph - N/A   Mostly Cloudy
1:53 PM 79.0 °F 64.9 °F 62% 30.11 in 10.0 mi NE 9.2 mph - 0.01 in   Scattered Clouds
2:53 PM 78.1 °F 66.0 °F 66% 30.09 in 10.0 mi NE 9.2 mph - N/A   Clear
3:53 PM 75.9 °F 66.0 °F 71% 30.08 in 10.0 mi NE 5.8 mph - N/A   Scattered Clouds
4:10 PM 75.2 °F 64.4 °F 69% 30.09 in 10.0 mi NE 9.2 mph - N/A   Mostly Cloudy
4:17 PM 75.2 °F 64.4 °F 69% 30.09 in 10.0 mi ENE 5.8 mph - N/A   Scattered Clouds
4:53 PM 75.0 °F 66.0 °F 73% 30.09 in 10.0 mi NNE 8.1 mph - N/A   Scattered Clouds
5:53 PM 73.0 °F 66.9 °F 81% 30.09 in 10.0 mi ENE 6.9 mph - N/A   Scattered Clouds
6:53 PM 72.0 °F 66.9 °F 84% 30.11 in 10.0 mi NNE 6.9 mph - 0.01 in   Clear
7:53 PM 72.0 °F 66.0 °F 81% 30.13 in 10.0 mi NNW 3.5 mph - N/A   Scattered Clouds
8:53 PM 72.0 °F 66.0 °F 81% 30.14 in 10.0 mi NNW 5.8 mph - N/A   Scattered Clouds
9:00 PM 71.6 °F 66.2 °F 83% 30.15 in 10.0 mi NNW 4.6 mph - N/A   Overcast
9:07 PM 71.6 °F 66.2 °F 83% 30.15 in 10.0 mi North 5.8 mph - N/A   Scattered Clouds
9:53 PM 73.0 °F 66.0 °F 79% 30.14 in 10.0 mi NE 6.9 mph - N/A   Scattered Clouds
10:53 PM 70.0 °F 64.9 °F 84% 30.13 in 10.0 mi WNW 4.6 mph - N/A   Overcast
11:13 PM 69.8 °F 64.4 °F 83% 30.13 in 10.0 mi WNW 4.6 mph - N/A   Mostly Cloudy
11:53 PM 69.1 °F 64.9 °F 87% 30.12 in 10.0 mi Variable 4.6 mph - N/A   Overcast